| time (UTC) | temp F | wind direction | speed MPH | gust MPH | rain 1hr in | rain 24hr in | rain mn in | humidity % | barometer mb |
| 20260507190051 | 85 | 36 | 10.0 | 18.0 | 0.00 | 0.00 | 0.00 | 73 | 1015.1 |
| 20260507185529 | 85 | 9 | 11.0 | 18.0 | 0.00 | 0.00 | 0.00 | 73 | 1015.1 |
| 20260507185029 | 85 | 32 | 11.0 | 18.0 | 0.00 | 0.00 | 0.00 | 73 | 1015.2 |
| 20260507184541 | 85 | 352 | 11.0 | 18.0 | 0.00 | 0.00 | 0.00 | 73 | 1015.2 |
| 20260507184030 | 85 | 5 | 9.0 | 17.0 | 0.00 | 0.00 | 0.00 | 74 | 1015.2 |
| 20260507183532 | 85 | 9 | 10.0 | 17.0 | 0.00 | 0.00 | 0.00 | 73 | 1015.2 |
| 20260507183047 | 85 | 24 | 10.0 | 17.0 | 0.00 | 0.00 | 0.00 | 73 | 1015.2 |
| 20260507182532 | 85 | 14 | 11.0 | 17.0 | 0.00 | 0.00 | 0.00 | 73 | 1015.4 |
| 20260507182032 | 85 | 30 | 10.0 | 17.0 | 0.00 | 0.00 | 0.00 | 74 | 1015.3 |
| 20260507181551 | 85 | 32 | 9.0 | 17.0 | 0.00 | 0.00 | 0.00 | 73 | 1015.5 |
| 20260507181035 | 85 | 41 | 9.0 | 16.0 | 0.00 | 0.00 | 0.00 | 74 | 1015.6 |
| 20260507180529 | 85 | 15 | 10.0 | 16.0 | 0.00 | 0.00 | 0.00 | 75 | 1015.6 |
| 20260507180045 | 85 | 338 | 10.0 | 18.0 | 0.00 | 0.00 | 0.00 | 75 | 1015.6 |
| 20260507175532 | 85 | 20 | 11.0 | 18.0 | 0.00 | 0.00 | 0.00 | 74 | 1015.7 |
| 20260507175032 | 85 | 350 | 9.0 | 18.0 | 0.00 | 0.00 | 0.00 | 75 | 1015.8 |
| 20260507174554 | 85 | 15 | 10.0 | 19.0 | 0.00 | 0.00 | 0.00 | 74 | 1015.8 |
| 20260507174031 | 85 | 345 | 11.0 | 19.0 | 0.00 | 0.00 | 0.00 | 73 | 1015.7 |
| 20260507173532 | 85 | 338 | 11.0 | 20.0 | 0.00 | 0.00 | 0.00 | 73 | 1015.8 |
| 20260507173113 | 85 | 9 | 11.0 | 20.0 | 0.00 | 0.00 | 0.00 | 73 | 1015.8 |
| 20260507172533 | 85 | 49 | 9.0 | 17.0 | 0.00 | 0.00 | 0.00 | 73 | 1016.1 |
| 20260507172032 | 85 | 327 | 10.0 | 17.0 | 0.00 | 0.00 | 0.00 | 73 | 1016.2 |
| 20260507171549 | 85 | 22 | 11.0 | 17.0 | 0.00 | 0.00 | 0.00 | 73 | 1016.2 |
| 20260507171032 | 85 | 360 | 10.0 | 17.0 | 0.00 | 0.00 | 0.00 | 73 | 1016.3 |
| 20260507170533 | 85 | 17 | 10.0 | 17.0 | 0.00 | 0.00 | 0.00 | 73 | 1016.4 |
| 20260507170044 | 85 | 26 | 10.0 | 17.0 | 0.00 | 0.00 | 0.00 | 72 | 1016.5 |
| 20260507165532 | 85 | 12 | 10.0 | 20.0 | 0.00 | 0.00 | 0.00 | 73 | 1016.6 |
| 20260507165030 | 85 | 5 | 12.0 | 20.0 | 0.00 | 0.00 | 0.00 | 72 | 1016.6 |
| 20260507164554 | 85 | 49 | 10.0 | 17.0 | 0.00 | 0.00 | 0.00 | 73 | 1016.6 |
| 20260507164030 | 85 | 31 | 10.0 | 17.0 | 0.00 | 0.00 | 0.00 | 74 | 1016.6 |
| 20260507163529 | 85 | 15 | 11.0 | 17.0 | 0.00 | 0.00 | 0.00 | 73 | 1016.8 |
| 20260507163048 | 85 | 352 | 10.0 | 16.0 | 0.00 | 0.00 | 0.00 | 74 | 1016.9 |
| 20260507162532 | 85 | 360 | 10.0 | 16.0 | 0.00 | 0.00 | 0.00 | 73 | 1016.9 |
| 20260507162035 | 85 | 343 | 11.0 | 17.0 | 0.00 | 0.00 | 0.00 | 73 | 1017.0 |
| 20260507161603 | 85 | 38 | 11.0 | 17.0 | 0.00 | 0.00 | 0.00 | 74 | 1017.1 |
| 20260507161032 | 85 | 5 | 9.0 | 15.0 | 0.00 | 0.00 | 0.00 | 75 | 1017.1 |
| 20260507160533 | 85 | 360 | 10.0 | 16.0 | 0.00 | 0.00 | 0.00 | 75 | 1017.2 |
| 20260507160050 | 85 | 335 | 9.0 | 16.0 | 0.00 | 0.00 | 0.00 | 75 | 1017.2 |
| 20260507155532 | 85 | 18 | 11.0 | 16.0 | 0.00 | 0.00 | 0.00 | 74 | 1017.2 |
| 20260507155032 | 85 | 360 | 8.0 | 16.0 | 0.00 | 0.00 | 0.00 | 75 | 1017.2 |
| 20260507154550 | 85 | 30 | 9.0 | 16.0 | 0.00 | 0.00 | 0.00 | 76 | 1017.3 |
| 20260507154033 | 85 | 360 | 10.0 | 17.0 | 0.00 | 0.00 | 0.00 | 76 | 1017.2 |
| 20260507153533 | 85 | 32 | 9.0 | 17.0 | 0.00 | 0.00 | 0.00 | 76 | 1017.2 |
| 20260507153043 | 84 | 12 | 9.0 | 15.0 | 0.00 | 0.00 | 0.00 | 76 | 1017.3 |
| 20260507152530 | 84 | 352 | 9.0 | 15.0 | 0.00 | 0.00 | 0.00 | 76 | 1017.3 |
| 20260507152030 | 84 | 5 | 10.0 | 16.0 | 0.00 | 0.00 | 0.00 | 75 | 1017.3 |
| 20260507151546 | 85 | 331 | 10.0 | 16.0 | 0.00 | 0.00 | 0.00 | 75 | 1017.3 |
| 20260507151028 | 85 | 15 | 10.0 | 16.0 | 0.00 | 0.00 | 0.00 | 75 | 1017.3 |
| 20260507150533 | 85 | 10 | 9.0 | 17.0 | 0.00 | 0.00 | 0.00 | 74 | 1017.3 |
| 20260507150050 | 84 | 352 | 10.0 | 17.0 | 0.00 | 0.00 | 0.00 | 73 | 1017.2 |
| 20260507145529 | 84 | 49 | 9.0 | 16.0 | 0.00 | 0.00 | 0.00 | 73 | 1017.3 |
| 20260507145029 | 84 | 344 | 10.0 | 16.0 | 0.00 | 0.00 | 0.00 | 73 | 1017.3 |
| 20260507144548 | 84 | 11 | 10.0 | 16.0 | 0.00 | 0.00 | 0.00 | 74 | 1017.3 |
| 20260507144029 | 84 | 352 | 8.0 | 15.0 | 0.00 | 0.00 | 0.00 | 75 | 1017.2 |
| 20260507143529 | 84 | 22 | 9.0 | 15.0 | 0.00 | 0.00 | 0.00 | 75 | 1017.3 |
| 20260507143047 | 84 | 36 | 9.0 | 15.0 | 0.00 | 0.00 | 0.00 | 75 | 1017.3 |
| 20260507142529 | 84 | 20 | 9.0 | 15.0 | 0.00 | 0.00 | 0.00 | 76 | 1017.4 |
| 20260507142029 | 84 | 17 | 9.0 | 15.0 | 0.00 | 0.00 | 0.00 | 75 | 1017.5 |
| 20260507141551 | 83 | 5 | 9.0 | 16.0 | 0.00 | 0.00 | 0.00 | 75 | 1017.5 |
| 20260507141034 | 83 | 17 | 8.0 | 16.0 | 0.00 | 0.00 | 0.00 | 75 | 1017.5 |
| 20260507140530 | 83 | 21 | 10.0 | 16.0 | 0.00 | 0.00 | 0.00 | 75 | 1017.4 |
| 20260507140042 | 84 | 11 | 9.0 | 14.0 | 0.00 | 0.00 | 0.00 | 75 | 1017.4 |
| 20260507135530 | 83 | 17 | 8.0 | 14.0 | 0.00 | 0.00 | 0.00 | 75 | 1017.4 |
| 20260507135030 | 83 | 352 | 10.0 | 14.0 | 0.00 | 0.00 | 0.00 | 75 | 1017.4 |
| 20260507134545 | 83 | 20 | 9.0 | 13.0 | 0.00 | 0.00 | 0.00 | 75 | 1017.5 |
| 20260507134031 | 83 | 360 | 9.0 | 13.0 | 0.00 | 0.00 | 0.00 | 75 | 1017.5 |
| 20260507133534 | 83 | 5 | 8.0 | 13.0 | 0.00 | 0.00 | 0.00 | 75 | 1017.5 |
| 20260507133046 | 83 | 346 | 6.0 | 12.0 | 0.00 | 0.00 | 0.00 | 76 | 1017.5 |
| 20260507132534 | 83 | 21 | 6.0 | 12.0 | 0.00 | 0.00 | 0.00 | 76 | 1017.5 |
| 20260507132030 | 82 | 26 | 6.0 | 11.0 | 0.00 | 0.00 | 0.00 | 76 | 1017.4 |
| 20260507131542 | 82 | 352 | 6.0 | 11.0 | 0.00 | 0.00 | 0.00 | 76 | 1017.4 |
| 20260507131032 | 82 | 5 | 7.0 | 12.0 | 0.00 | 0.00 | 0.00 | 76 | 1017.4 |
| 20260507130532 | 81 | 352 | 7.0 | 12.0 | 0.00 | 0.00 | 0.00 | 76 | 1017.4 |
| 20260507130045 | 81 | 352 | 6.0 | 12.0 | 0.00 | 0.00 | 0.00 | 75 | 1017.4 |
| 20260507125532 | 82 | 26 | 7.0 | 11.0 | 0.00 | 0.00 | 0.00 | 75 | 1017.4 |
| 20260507125029 | 82 | 21 | 6.0 | 10.0 | 0.00 | 0.00 | 0.00 | 75 | 1017.3 |
| 20260507124543 | 81 | 360 | 7.0 | 11.0 | 0.00 | 0.00 | 0.00 | 74 | 1017.2 |
| 20260507124029 | 82 | 348 | 6.0 | 12.0 | 0.00 | 0.00 | 0.00 | 74 | 1017.2 |
| 20260507123531 | 82 | 349 | 8.0 | 12.0 | 0.00 | 0.00 | 0.00 | 73 | 1017.2 |
| 20260507123048 | 82 | 9 | 7.0 | 11.0 | 0.00 | 0.00 | 0.00 | 73 | 1017.1 |
| 20260507122530 | 82 | 322 | 7.0 | 10.0 | 0.00 | 0.00 | 0.00 | 74 | 1017.0 |
| 20260507122030 | 82 | 352 | 3.0 | 5.0 | 0.00 | 0.00 | 0.00 | 74 | 1016.9 |
| 20260507121545 | 81 | 332 | 1.0 | 7.0 | 0.00 | 0.00 | 0.00 | 75 | 1016.9 |
| 20260507121031 | 80 | 9 | 2.0 | 7.0 | 0.00 | 0.00 | 0.00 | 75 | 1016.7 |
| 20260507120529 | 80 | 105 | 0.0 | 5.0 | 0.00 | 0.00 | 0.00 | 76 | 1016.7 |
| 20260507120056 | 79 | 360 | 2.0 | 6.0 | 0.00 | 0.00 | 0.00 | 77 | 1016.7 |
| 20260507115530 | 79 | 101 | 2.0 | 6.0 | 0.00 | 0.00 | 0.00 | 77 | 1016.6 |
| 20260507115030 | 78 | 120 | 1.0 | 4.0 | 0.00 | 0.00 | 0.00 | 79 | 1016.6 |
| 20260507114544 | 78 | 69 | 1.0 | 5.0 | 0.00 | 0.00 | 0.00 | 79 | 1016.5 |
| 20260507114029 | 77 | 26 | 0.0 | 5.0 | 0.00 | 0.00 | 0.00 | 80 | 1016.4 |
| 20260507113529 | 77 | 20 | 2.0 | 5.0 | 0.00 | 0.00 | 0.00 | 81 | 1016.4 |
| 20260507113049 | 76 | 0 | 1.0 | 5.0 | 0.00 | 0.00 | 0.00 | 82 | 1016.3 |
| 20260507112529 | 76 | 5 | 1.0 | 4.0 | 0.00 | 0.00 | 0.00 | 82 | 1016.3 |
| 20260507112032 | 75 | 18 | 1.0 | 4.0 | 0.00 | 0.00 | 0.00 | 83 | 1016.2 |
| 20260507111543 | 75 | 0 | 0.0 | 4.0 | 0.00 | 0.00 | 0.00 | 83 | 1016.2 |
| 20260507111032 | 74 | 5 | 0.0 | 4.0 | 0.00 | 0.00 | 0.00 | 84 | 1016.3 |
| 20260507110530 | 74 | 0 | 0.0 | 4.0 | 0.00 | 0.00 | 0.00 | 84 | 1016.2 |
| 20260507110047 | 74 | 31 | 0.0 | 0.0 | 0.00 | 0.00 | 0.00 | 84 | 1016.2 |
| 20260507105532 | 73 | 0 | 0.0 | 3.0 | 0.00 | 0.00 | 0.00 | 84 | 1016.3 |
| 20260507105031 | 73 | 0 | 0.0 | 4.0 | 0.00 | 0.00 | 0.00 | 84 | 1016.2 |
| 20260507104545 | 73 | 30 | 1.0 | 4.0 | 0.00 | 0.00 | 0.00 | 84 | 1016.2 |
| 20260507104032 | 73 | 0 | 0.0 | 3.0 | 0.00 | 0.00 | 0.00 | 83 | 1016.2 |
| 20260507103529 | 72 | 0 | 0.0 | 3.0 | 0.00 | 0.00 | 0.00 | 83 | 1016.2 |
| 20260507103046 | 72 | 0 | 0.0 | 2.0 | 0.00 | 0.00 | 0.00 | 83 | 1016.2 |
| 20260507102531 | 72 | 0 | 0.0 | 1.0 | 0.00 | 0.00 | 0.00 | 83 | 1016.2 |
| 20260507102032 | 72 | 0 | 0.0 | 0.0 | 0.00 | 0.00 | 0.00 | 83 | 1016.2 |
| 20260507101542 | 72 | 0 | 0.0 | 2.0 | 0.00 | 0.00 | 0.00 | 83 | 1016.2 |
| 20260507101031 | 72 | 0 | 0.0 | 2.0 | 0.00 | 0.00 | 0.00 | 83 | 1016.1 |
| 20260507100530 | 72 | 0 | 0.0 | 3.0 | 0.00 | 0.00 | 0.00 | 83 | 1016.0 |
| 20260507100043 | 72 | 0 | 0.0 | 4.0 | 0.00 | 0.00 | 0.00 | 83 | 1015.9 |
| 20260507095532 | 72 | 0 | 0.0 | 5.0 | 0.00 | 0.00 | 0.00 | 83 | 1015.9 |
| 20260507095032 | 72 | 0 | 2.0 | 5.0 | 0.00 | 0.00 | 0.00 | 83 | 1015.8 |
| 20260507094553 | 72 | 0 | 0.0 | 3.0 | 0.00 | 0.00 | 0.00 | 83 | 1015.8 |
| 20260507094032 | 72 | 0 | 0.0 | 3.0 | 0.00 | 0.00 | 0.00 | 83 | 1015.7 |
| 20260507093531 | 72 | 69 | 0.0 | 3.0 | 0.00 | 0.00 | 0.00 | 83 | 1015.7 |
| 20260507093046 | 72 | 0 | 0.0 | 2.0 | 0.00 | 0.00 | 0.00 | 83 | 1015.6 |
| 20260507092550 | 72 | 0 | 0.0 | 2.0 | 0.00 | 0.00 | 0.00 | 83 | 1015.6 |
| 20260507092031 | 72 | 201 | 0.0 | 2.0 | 0.00 | 0.00 | 0.00 | 83 | 1015.6 |
| 20260507091546 | 73 | 0 | 0.0 | 3.0 | 0.00 | 0.00 | 0.00 | 83 | 1015.6 |
| 20260507091031 | 73 | 0 | 0.0 | 3.0 | 0.00 | 0.00 | 0.00 | 83 | 1015.6 |
| 20260507090530 | 73 | 92 | 1.0 | 3.0 | 0.00 | 0.00 | 0.00 | 83 | 1015.6 |
| 20260507090045 | 73 | 88 | 0.0 | 3.0 | 0.00 | 0.00 | 0.00 | 82 | 1015.7 |
| 20260507085529 | 73 | 101 | 0.0 | 4.0 | 0.00 | 0.00 | 0.00 | 82 | 1015.8 |
| 20260507085029 | 73 | 0 | 0.0 | 4.0 | 0.00 | 0.00 | 0.00 | 82 | 1015.9 |
| 20260507084542 | 73 | 0 | 0.0 | 4.0 | 0.00 | 0.00 | 0.00 | 82 | 1015.9 |
| 20260507084031 | 73 | 36 | 0.0 | 2.0 | 0.00 | 0.00 | 0.00 | 82 | 1016.0 |
| 20260507083532 | 73 | 0 | 0.0 | 0.0 | 0.00 | 0.00 | 0.00 | 82 | 1015.9 |
| 20260507083042 | 73 | 0 | 0.0 | 3.0 | 0.00 | 0.00 | 0.00 | 81 | 1015.9 |
| 20260507082528 | 74 | 0 | 0.0 | 3.0 | 0.00 | 0.00 | 0.00 | 81 | 1015.9 |
| 20260507082033 | 74 | 91 | 0.0 | 1.0 | 0.00 | 0.00 | 0.00 | 81 | 1015.9 |
| 20260507081548 | 74 | 0 | 0.0 | 2.0 | 0.00 | 0.00 | 0.00 | 81 | 1015.9 |
| 20260507081030 | 74 | 0 | 0.0 | 2.0 | 0.00 | 0.00 | 0.00 | 81 | 1015.8 |
| 20260507080535 | 74 | 0 | 0.0 | 1.0 | 0.00 | 0.00 | 0.00 | 81 | 1015.9 |
| 20260507080056 | 74 | 0 | 0.0 | 4.0 | 0.00 | 0.00 | 0.00 | 81 | 1015.8 |
| 20260507075532 | 74 | 0 | 0.0 | 4.0 | 0.00 | 0.00 | 0.00 | 80 | 1015.8 |
| 20260507075032 | 74 | 0 | 0.0 | 3.0 | 0.00 | 0.00 | 0.00 | 80 | 1015.9 |
| 20260507074548 | 74 | 58 | 0.0 | 3.0 | 0.00 | 0.00 | 0.00 | 80 | 1015.7 |
| 20260507074031 | 75 | 78 | 0.0 | 1.0 | 0.00 | 0.00 | 0.00 | 80 | 1015.8 |
| 20260507073532 | 75 | 0 | 0.0 | 2.0 | 0.00 | 0.00 | 0.00 | 80 | 1015.7 |
| 20260507073107 | 75 | 0 | 0.0 | 4.0 | 0.00 | 0.00 | 0.00 | 80 | 1015.8 |
| 20260507072532 | 75 | 0 | 0.0 | 6.0 | 0.00 | 0.00 | 0.00 | 80 | 1015.8 |
| 20260507072030 | 75 | 122 | 0.0 | 6.0 | 0.00 | 0.00 | 0.00 | 80 | 1015.8 |
| 20260507071546 | 75 | 360 | 3.0 | 7.0 | 0.00 | 0.00 | 0.00 | 80 | 1015.9 |
| 20260507071030 | 75 | 144 | 3.0 | 8.0 | 0.00 | 0.00 | 0.00 | 81 | 1015.9 |
| 20260507070531 | 75 | 360 | 3.0 | 8.0 | 0.00 | 0.00 | 0.00 | 81 | 1015.9 |
| 20260507070045 | 75 | 135 | 3.0 | 8.0 | 0.00 | 0.00 | 0.00 | 81 | 1015.9 |
| 20260507065530 | 74 | 360 | 3.0 | 6.0 | 0.00 | 0.00 | 0.00 | 81 | 1016.1 |
| 20260507065032 | 75 | 104 | 2.0 | 4.0 | 0.00 | 0.00 | 0.00 | 81 | 1016.1 |
| 20260507064601 | 75 | 111 | 0.0 | 4.0 | 0.00 | 0.00 | 0.00 | 81 | 1016.2 |
| 20260507064032 | 75 | 94 | 0.0 | 3.0 | 0.00 | 0.00 | 0.00 | 81 | 1016.2 |
| 20260507063530 | 75 | 82 | 0.0 | 2.0 | 0.00 | 0.00 | 0.00 | 81 | 1016.3 |
| 20260507063052 | 75 | 0 | 0.0 | 3.0 | 0.00 | 0.00 | 0.00 | 81 | 1016.4 |
| 20260507062531 | 75 | 0 | 0.0 | 3.0 | 0.00 | 0.00 | 0.00 | 81 | 1016.4 |
| 20260507062029 | 75 | 113 | 0.0 | 0.0 | 0.00 | 0.00 | 0.00 | 81 | 1016.4 |
| 20260507061549 | 75 | 0 | 0.0 | 2.0 | 0.00 | 0.00 | 0.00 | 80 | 1016.4 |
| 20260507061032 | 75 | 0 | 0.0 | 2.0 | 0.00 | 0.00 | 0.00 | 80 | 1016.5 |
| 20260507060532 | 75 | 0 | 0.0 | 4.0 | 0.00 | 0.00 | 0.00 | 80 | 1016.6 |
| 20260507060041 | 75 | 0 | 0.0 | 6.0 | 0.00 | 0.00 | 0.00 | 81 | 1016.6 |
| 20260507055532 | 75 | 360 | 1.0 | 6.0 | 0.00 | 0.00 | 0.00 | 81 | 1016.8 |
| 20260507055029 | 75 | 119 | 2.0 | 6.0 | 0.00 | 0.00 | 0.00 | 81 | 1016.8 |
| 20260507054546 | 76 | 117 | 2.0 | 5.0 | 0.00 | 0.00 | 0.00 | 81 | 1016.8 |
| 20260507054032 | 75 | 121 | 2.0 | 6.0 | 0.00 | 0.00 | 0.00 | 81 | 1016.8 |
| 20260507053532 | 76 | 360 | 2.0 | 6.0 | 0.00 | 0.00 | 0.00 | 81 | 1017.0 |
| 20260507053043 | 76 | 252 | 2.0 | 7.0 | 0.00 | 0.00 | 0.00 | 81 | 1017.1 |
| 20260507052529 | 76 | 108 | 2.0 | 7.0 | 0.00 | 0.00 | 0.00 | 81 | 1017.1 |
| 20260507052031 | 76 | 105 | 2.0 | 6.0 | 0.00 | 0.00 | 0.00 | 81 | 1017.1 |
| 20260507051545 | 76 | 104 | 1.0 | 4.0 | 0.00 | 0.00 | 0.00 | 81 | 1017.2 |
| 20260507051032 | 76 | 0 | 0.0 | 2.0 | 0.00 | 0.00 | 0.00 | 81 | 1017.3 |
| 20260507050530 | 76 | 0 | 0.0 | 2.0 | 0.00 | 0.00 | 0.00 | 81 | 1017.4 |
| 20260507050044 | 76 | 0 | 0.0 | 4.0 | 0.00 | 0.00 | 0.00 | 81 | 1017.4 |
| 20260507045530 | 76 | 0 | 0.0 | 4.0 | 0.00 | 0.00 | 0.00 | 81 | 1017.5 |
| 20260507045031 | 76 | 115 | 0.0 | 4.0 | 0.00 | 0.00 | 0.00 | 81 | 1017.5 |
| 20260507044550 | 76 | 28 | 0.0 | 6.0 | 0.00 | 0.00 | 0.00 | 81 | 1017.5 |
| 20260507044030 | 76 | 0 | 0.0 | 7.0 | 0.00 | 0.00 | 0.00 | 81 | 1017.6 |
| 20260507043529 | 77 | 120 | 4.0 | 7.0 | 0.00 | 0.00 | 0.00 | 82 | 1017.6 |
| 20260507043049 | 77 | 117 | 2.0 | 7.0 | 0.00 | 0.00 | 0.00 | 82 | 1017.6 |
| 20260507042529 | 77 | 108 | 2.0 | 7.0 | 0.00 | 0.00 | 0.00 | 82 | 1017.6 |
| 20260507042030 | 77 | 0 | 1.0 | 7.0 | 0.00 | 0.00 | 0.00 | 83 | 1017.7 |
| 20260507041548 | 77 | 113 | 3.0 | 7.0 | 0.00 | 0.00 | 0.00 | 83 | 1017.7 |
| 20260507041032 | 77 | 0 | 0.0 | 6.0 | 0.00 | 0.00 | 0.00 | 83 | 1017.7 |
| 20260507040530 | 78 | 0 | 0.0 | 6.0 | 0.00 | 0.00 | 0.00 | 83 | 1017.8 |
| 20260507040048 | 78 | 51 | 1.0 | 5.0 | 0.00 | 0.00 | 0.00 | 83 | 1017.8 |
| 20260507035529 | 78 | 23 | 1.0 | 7.0 | 0.00 | 0.00 | 0.00 | 83 | 1017.9 |
| 20260507035030 | 79 | 0 | 1.0 | 7.0 | 0.00 | 0.00 | 0.00 | 84 | 1017.9 |
| 20260507034554 | 79 | 69 | 1.0 | 6.0 | 0.00 | 0.00 | 0.00 | 84 | 1017.9 |
| 20260507034029 | 79 | 108 | 1.0 | 4.0 | 0.00 | 0.00 | 0.00 | 84 | 1017.9 |
| 20260507033529 | 79 | 0 | 0.0 | 4.0 | 0.00 | 0.00 | 0.00 | 84 | 1017.8 |
| 20260507033101 | 79 | 23 | 1.0 | 7.0 | 0.00 | 0.00 | 0.00 | 84 | 1017.9 |
| 20260507032531 | 79 | 82 | 1.0 | 7.0 | 0.00 | 0.00 | 0.00 | 84 | 1017.9 |
| 20260507032029 | 80 | 117 | 2.0 | 7.0 | 0.00 | 0.00 | 0.00 | 83 | 1017.9 |
| 20260507031548 | 80 | 111 | 2.0 | 8.0 | 0.00 | 0.00 | 0.00 | 83 | 1017.9 |
| 20260507031029 | 80 | 124 | 1.0 | 8.0 | 0.00 | 0.00 | 0.00 | 83 | 1017.9 |
| 20260507030531 | 80 | 75 | 2.0 | 8.0 | 0.00 | 0.00 | 0.00 | 83 | 1017.9 |
| 20260507030046 | 80 | 119 | 2.0 | 7.0 | 0.00 | 0.00 | 0.00 | 83 | 1018.0 |
| 20260507025531 | 80 | 111 | 4.0 | 7.0 | 0.00 | 0.00 | 0.00 | 83 | 1017.9 |
| 20260507025030 | 81 | 117 | 2.0 | 7.0 | 0.00 | 0.00 | 0.00 | 83 | 1017.9 |
| 20260507024554 | 81 | 136 | 3.0 | 7.0 | 0.00 | 0.00 | 0.00 | 83 | 1017.9 |
| 20260507024030 | 81 | 138 | 4.0 | 7.0 | 0.00 | 0.00 | 0.00 | 83 | 1017.8 |
| 20260507023529 | 81 | 0 | 3.0 | 7.0 | 0.00 | 0.00 | 0.00 | 83 | 1017.8 |
| 20260507023043 | 81 | 116 | 2.0 | 7.0 | 0.00 | 0.00 | 0.00 | 83 | 1017.8 |
| 20260507022532 | 81 | 146 | 3.0 | 7.0 | 0.00 | 0.00 | 0.00 | 83 | 1017.8 |
| 20260507022032 | 82 | 145 | 3.0 | 7.0 | 0.00 | 0.00 | 0.00 | 83 | 1017.8 |
| 20260507021543 | 82 | 233 | 1.0 | 3.0 | 0.00 | 0.00 | 0.00 | 83 | 1017.7 |
| 20260507021034 | 82 | 233 | 1.0 | 3.0 | 0.00 | 0.00 | 0.00 | 83 | 1017.7 |
| 20260507020530 | 82 | 0 | 1.0 | 3.0 | 0.00 | 0.00 | 0.00 | 83 | 1017.5 |
| 20260507020045 | 82 | 266 | 0.0 | 3.0 | 0.00 | 0.00 | 0.00 | 83 | 1017.6 |
| 20260507015532 | 82 | 0 | 0.0 | 3.0 | 0.00 | 0.00 | 0.00 | 83 | 1017.5 |
| 20260507015029 | 82 | 273 | 1.0 | 4.0 | 0.00 | 0.00 | 0.00 | 83 | 1017.5 |
| 20260507014542 | 82 | 273 | 0.0 | 4.0 | 0.00 | 0.00 | 0.00 | 83 | 1017.4 |
| 20260507014029 | 82 | 273 | 2.0 | 4.0 | 0.00 | 0.00 | 0.00 | 83 | 1017.3 |
| 20260507013532 | 82 | 248 | 2.0 | 6.0 | 0.00 | 0.00 | 0.00 | 83 | 1017.3 |
| 20260507013040 | 82 | 273 | 3.0 | 6.0 | 0.00 | 0.00 | 0.00 | 83 | 1017.2 |
| 20260507012530 | 82 | 360 | 2.0 | 6.0 | 0.00 | 0.00 | 0.00 | 83 | 1017.2 |
| 20260507012030 | 82 | 282 | 2.0 | 7.0 | 0.00 | 0.00 | 0.00 | 83 | 1017.2 |
| 20260507011545 | 82 | 278 | 2.0 | 7.0 | 0.00 | 0.00 | 0.00 | 83 | 1017.1 |
| 20260507011029 | 82 | 257 | 2.0 | 7.0 | 0.00 | 0.00 | 0.00 | 83 | 1017.1 |
| 20260507010533 | 82 | 248 | 3.0 | 8.0 | 0.00 | 0.00 | 0.00 | 83 | 1017.1 |
| 20260507010052 | 82 | 280 | 3.0 | 8.0 | 0.00 | 0.00 | 0.00 | 83 | 1017.1 |
| 20260507005530 | 82 | 360 | 2.0 | 7.0 | 0.00 | 0.00 | 0.00 | 83 | 1017.1 |
| 20260507005029 | 82 | 360 | 3.0 | 7.0 | 0.00 | 0.00 | 0.00 | 82 | 1017.1 |
| 20260507004544 | 82 | 360 | 3.0 | 7.0 | 0.00 | 0.00 | 0.00 | 82 | 1017.1 |
| 20260507004030 | 82 | 360 | 3.0 | 6.0 | 0.00 | 0.00 | 0.00 | 82 | 1017.1 |
| 20260507003530 | 82 | 360 | 3.0 | 6.0 | 0.00 | 0.00 | 0.00 | 82 | 1017.0 |
| 20260507003045 | 82 | 284 | 2.0 | 8.0 | 0.00 | 0.00 | 0.00 | 82 | 1017.0 |
| 20260507002529 | 82 | 360 | 3.0 | 8.0 | 0.00 | 0.00 | 0.00 | 82 | 1016.9 |
| 20260507002029 | 82 | 244 | 2.0 | 8.0 | 0.00 | 0.00 | 0.00 | 82 | 1016.9 |
| 20260507001605 | 82 | 360 | 4.0 | 9.0 | 0.00 | 0.00 | 0.00 | 82 | 1016.8 |
| 20260507001029 | 82 | 360 | 4.0 | 9.0 | 0.00 | 0.00 | 0.00 | 82 | 1016.8 |
| 20260507000530 | 82 | 289 | 4.0 | 9.0 | 0.00 | 0.00 | 0.00 | 82 | 1016.8 |
| 20260507000045 | 82 | 285 | 4.0 | 10.0 | 0.00 | 0.00 | 0.00 | 82 | 1016.8 |
| 20260506235531 | 82 | 360 | 4.0 | 10.0 | 0.00 | 0.00 | 0.00 | 82 | 1016.7 |
| 20260506235029 | 82 | 360 | 3.0 | 10.0 | 0.00 | 0.00 | 0.00 | 81 | 1016.7 |
| 20260506234556 | 82 | 267 | 4.0 | 10.0 | 0.00 | 0.00 | 0.00 | 81 | 1016.7 |
| 20260506234030 | 82 | 360 | 3.0 | 8.0 | 0.00 | 0.00 | 0.00 | 81 | 1016.5 |
| 20260506233530 | 82 | 360 | 4.0 | 9.0 | 0.00 | 0.00 | 0.00 | 81 | 1016.6 |
| 20260506233044 | 82 | 360 | 4.0 | 9.0 | 0.00 | 0.00 | 0.00 | 81 | 1016.6 |
| 20260506232530 | 82 | 273 | 3.0 | 10.0 | 0.00 | 0.00 | 0.00 | 80 | 1016.5 |
| 20260506232032 | 82 | 360 | 4.0 | 11.0 | 0.00 | 0.00 | 0.00 | 80 | 1016.5 |
| 20260506231545 | 82 | 360 | 4.0 | 11.0 | 0.00 | 0.00 | 0.00 | 80 | 1016.5 |
| 20260506231030 | 82 | 296 | 4.0 | 9.0 | 0.00 | 0.00 | 0.00 | 79 | 1016.4 |
| 20260506230529 | 83 | 292 | 4.0 | 8.0 | 0.00 | 0.00 | 0.00 | 79 | 1016.3 |
| 20260506230049 | 82 | 360 | 3.0 | 8.0 | 0.00 | 0.00 | 0.00 | 78 | 1016.3 |
| 20260506225531 | 83 | 360 | 4.0 | 8.0 | 0.00 | 0.00 | 0.00 | 78 | 1016.3 |
| 20260506225030 | 83 | 360 | 4.0 | 8.0 | 0.00 | 0.00 | 0.00 | 78 | 1016.2 |
| 20260506224603 | 83 | 360 | 4.0 | 9.0 | 0.00 | 0.00 | 0.00 | 77 | 1016.2 |
| 20260506224033 | 83 | 360 | 3.0 | 9.0 | 0.00 | 0.00 | 0.00 | 77 | 1016.1 |
| 20260506223529 | 83 | 360 | 3.0 | 8.0 | 0.00 | 0.00 | 0.00 | 76 | 1016.1 |
| 20260506223046 | 84 | 360 | 4.0 | 8.0 | 0.00 | 0.00 | 0.00 | 76 | 1015.9 |
| 20260506222530 | 84 | 360 | 4.0 | 8.0 | 0.00 | 0.00 | 0.00 | 76 | 1015.9 |
| 20260506222034 | 84 | 360 | 3.0 | 8.0 | 0.00 | 0.00 | 0.00 | 75 | 1015.9 |
| 20260506221545 | 84 | 275 | 2.0 | 8.0 | 0.00 | 0.00 | 0.00 | 75 | 1016.0 |
| 20260506221029 | 85 | 309 | 3.0 | 8.0 | 0.00 | 0.00 | 0.00 | 75 | 1015.9 |
| 20260506220530 | 85 | 360 | 3.0 | 8.0 | 0.00 | 0.00 | 0.00 | 75 | 1015.8 |
| 20260506220059 | 85 | 290 | 3.0 | 8.0 | 0.00 | 0.00 | 0.00 | 75 | 1015.7 |
| 20260506215529 | 85 | 327 | 2.0 | 8.0 | 0.00 | 0.00 | 0.00 | 74 | 1015.7 |
| 20260506215029 | 85 | 352 | 2.0 | 8.0 | 0.00 | 0.00 | 0.00 | 74 | 1015.7 |
| 20260506214542 | 86 | 308 | 2.0 | 6.0 | 0.00 | 0.00 | 0.00 | 74 | 1015.7 |
| 20260506214033 | 86 | 321 | 2.0 | 6.0 | 0.00 | 0.00 | 0.00 | 74 | 1015.7 |
| 20260506213529 | 86 | 332 | 3.0 | 6.0 | 0.00 | 0.00 | 0.00 | 74 | 1015.7 |
| 20260506213045 | 85 | 346 | 2.0 | 9.0 | 0.00 | 0.00 | 0.00 | 74 | 1015.7 |
| 20260506212530 | 85 | 328 | 5.0 | 9.0 | 0.00 | 0.00 | 0.00 | 74 | 1015.6 |
| 20260506212030 | 86 | 329 | 3.0 | 7.0 | 0.00 | 0.00 | 0.00 | 74 | 1015.6 |
| 20260506211553 | 86 | 360 | 3.0 | 9.0 | 0.00 | 0.00 | 0.00 | 74 | 1015.5 |
| 20260506211030 | 86 | 304 | 3.0 | 9.0 | 0.00 | 0.00 | 0.00 | 73 | 1015.5 |
| 20260506210530 | 86 | 288 | 4.0 | 9.0 | 0.00 | 0.00 | 0.00 | 74 | 1015.5 |
| 20260506210046 | 86 | 336 | 3.0 | 8.0 | 0.00 | 0.00 | 0.00 | 74 | 1015.5 |
| 20260506205533 | 86 | 304 | 3.0 | 8.0 | 0.00 | 0.00 | 0.00 | 74 | 1015.6 |
| 20260506205033 | 85 | 350 | 4.0 | 9.0 | 0.00 | 0.00 | 0.00 | 74 | 1015.4 |
| 20260506204542 | 85 | 333 | 4.0 | 10.0 | 0.00 | 0.00 | 0.00 | 74 | 1015.4 |
| 20260506204033 | 85 | 17 | 6.0 | 10.0 | 0.00 | 0.00 | 0.00 | 74 | 1015.4 |
| 20260506203533 | 85 | 18 | 4.0 | 10.0 | 0.00 | 0.00 | 0.00 | 74 | 1015.4 |
| 20260506203041 | 85 | 352 | 5.0 | 10.0 | 0.00 | 0.00 | 0.00 | 74 | 1015.4 |
| 20260506202529 | 85 | 333 | 4.0 | 10.0 | 0.00 | 0.00 | 0.00 | 74 | 1015.4 |
| 20260506202029 | 85 | 352 | 6.0 | 10.0 | 0.00 | 0.00 | 0.00 | 74 | 1015.5 |
| 20260506201539 | 85 | 360 | 5.0 | 10.0 | 0.00 | 0.00 | 0.00 | 74 | 1015.5 |
| 20260506201028 | 85 | 343 | 5.0 | 10.0 | 0.00 | 0.00 | 0.00 | 73 | 1015.5 |
| 20260506200533 | 85 | 17 | 6.0 | 11.0 | 0.00 | 0.00 | 0.00 | 73 | 1015.5 |
| 20260506200045 | 85 | 360 | 6.0 | 11.0 | 0.00 | 0.00 | 0.00 | 73 | 1015.5 |
| 20260506195532 | 85 | 342 | 6.0 | 11.0 | 0.00 | 0.00 | 0.00 | 73 | 1015.6 |
| 20260506195030 | 85 | 9 | 6.0 | 11.0 | 0.00 | 0.00 | 0.00 | 73 | 1015.7 |
| 20260506194546 | 85 | 19 | 6.0 | 10.0 | 0.00 | 0.00 | 0.00 | 73 | 1015.7 |
| 20260506194030 | 85 | 360 | 6.0 | 12.0 | 0.00 | 0.00 | 0.00 | 73 | 1015.8 |
| 20260506193531 | 85 | 328 | 5.0 | 12.0 | 0.00 | 0.00 | 0.00 | 73 | 1015.7 |
| 20260506193050 | 85 | 9 | 8.0 | 12.0 | 0.00 | 0.00 | 0.00 | 72 | 1015.7 |
| 20260506192529 | 85 | 321 | 6.0 | 11.0 | 0.00 | 0.00 | 0.00 | 73 | 1015.8 |
| 20260506192029 | 85 | 360 | 6.0 | 13.0 | 0.00 | 0.00 | 0.00 | 73 | 1015.8 |
| 20260506191544 | 85 | 352 | 8.0 | 13.0 | 0.00 | 0.00 | 0.00 | 73 | 1015.7 |
| 20260506191029 | 86 | 352 | 7.0 | 11.0 | 0.00 | 0.00 | 0.00 | 73 | 1015.8 |
| 20260506190530 | 86 | 340 | 7.0 | 13.0 | 0.00 | 0.00 | 0.00 | 73 | 1015.8 |